Terminal Aerodrome Forecast
Issued by NWS

Home | Current Version | Previous Version | Text Only | Print | Product List | Glossary On
Versions: 1 2 3 4 5 6 7 8 9 10 11 12 13 14 15 16 17 18 19 20 21 22 23 24 25
000
FTUS45 KPSR 181700
TAFPHX
TAF
KPHX 181731Z 1818/1918 25004KT P6SM VCSH SCT040 BKN080 OVC100
     FM182100 26006KT P6SM SCT050 SCT100
     FM190400 10005KT P6SM FEW050 SCT200=

USA.gov is the U.S. government's official web portal to all federal, state and local government web resources and services.